<?xml version="1.0"?>
<gpx xmlns="http://www.topografix.com/GPX/1/1" xmlns:xsi="http://www.w3.org/2001/XMLSchema-instance" version="1.1" creator="GPX RubyGem 1.0.0 -- http://dougfales.github.io/gpx/" xsi:schemaLocation="http://www.topografix.com/GPX/1/1 http://www.topografix.com/GPX/1/1/gpx.xsd">
  <metadata>
    <name/>
    <time>2026-05-08T07:37:42+00:00</time>
    <bound minlat="90.0" minlon="180.0" maxlat="-90.0" maxlon="-180.0"/>
  </metadata>
  <trk>
    <name/>
    <trkseg>
      <trkpt lat="42.592765" lon="0.541459">
        <time>1970-01-01T00:00:00+00:00</time>
        <ele>1562.0</ele>
      </trkpt>
      <trkpt lat="42.592846" lon="0.541209">
        <time>1970-01-01T00:00:00+00:00</time>
        <ele>1562.0</ele>
      </trkpt>
      <trkpt lat="42.592839" lon="0.540944">
        <time>1970-01-01T00:00:00+00:00</time>
        <ele>1561.0</ele>
      </trkpt>
      <trkpt lat="42.592529" lon="0.54105">
        <time>1970-01-01T00:00:00+00:00</time>
        <ele>1561.0</ele>
      </trkpt>
      <trkpt lat="42.592021" lon="0.541207">
        <time>1970-01-01T00:00:00+00:00</time>
        <ele>1561.0</ele>
      </trkpt>
      <trkpt lat="42.591891" lon="0.541251">
        <time>1970-01-01T00:00:00+00:00</time>
        <ele>1560.0</ele>
      </trkpt>
      <trkpt lat="42.591784" lon="0.541239">
        <time>1970-01-01T00:00:00+00:00</time>
        <ele>1559.0</ele>
      </trkpt>
      <trkpt lat="42.591613" lon="0.541034">
        <time>1970-01-01T00:00:00+00:00</time>
        <ele>1555.0</ele>
      </trkpt>
      <trkpt lat="42.591547" lon="0.5412">
        <time>1970-01-01T00:00:00+00:00</time>
        <ele>1556.0</ele>
      </trkpt>
      <trkpt lat="42.591439" lon="0.541353">
        <time>1970-01-01T00:00:00+00:00</time>
        <ele>1555.0</ele>
      </trkpt>
      <trkpt lat="42.591339" lon="0.541616">
        <time>1970-01-01T00:00:00+00:00</time>
        <ele>1557.0</ele>
      </trkpt>
      <trkpt lat="42.591241" lon="0.541705">
        <time>1970-01-01T00:00:00+00:00</time>
        <ele>1557.0</ele>
      </trkpt>
      <trkpt lat="42.591122" lon="0.541788">
        <time>1970-01-01T00:00:00+00:00</time>
        <ele>1558.0</ele>
      </trkpt>
      <trkpt lat="42.591051" lon="0.541929">
        <time>1970-01-01T00:00:00+00:00</time>
        <ele>1560.0</ele>
      </trkpt>
      <trkpt lat="42.590973" lon="0.542202">
        <time>1970-01-01T00:00:00+00:00</time>
        <ele>1563.0</ele>
      </trkpt>
      <trkpt lat="42.590949" lon="0.542346">
        <time>1970-01-01T00:00:00+00:00</time>
        <ele>1565.0</ele>
      </trkpt>
      <trkpt lat="42.590949" lon="0.542578">
        <time>1970-01-01T00:00:00+00:00</time>
        <ele>1568.0</ele>
      </trkpt>
      <trkpt lat="42.590912" lon="0.542649">
        <time>1970-01-01T00:00:00+00:00</time>
        <ele>1569.0</ele>
      </trkpt>
      <trkpt lat="42.590769" lon="0.542831">
        <time>1970-01-01T00:00:00+00:00</time>
        <ele>1571.0</ele>
      </trkpt>
      <trkpt lat="42.590733" lon="0.542996">
        <time>1970-01-01T00:00:00+00:00</time>
        <ele>1574.0</ele>
      </trkpt>
      <trkpt lat="42.590655" lon="0.54319">
        <time>1970-01-01T00:00:00+00:00</time>
        <ele>1577.0</ele>
      </trkpt>
      <trkpt lat="42.590527" lon="0.543337">
        <time>1970-01-01T00:00:00+00:00</time>
        <ele>1580.0</ele>
      </trkpt>
      <trkpt lat="42.590423" lon="0.543401">
        <time>1970-01-01T00:00:00+00:00</time>
        <ele>1580.0</ele>
      </trkpt>
      <trkpt lat="42.590337" lon="0.543492">
        <time>1970-01-01T00:00:00+00:00</time>
        <ele>1581.0</ele>
      </trkpt>
      <trkpt lat="42.590133" lon="0.543766">
        <time>1970-01-01T00:00:00+00:00</time>
        <ele>1587.0</ele>
      </trkpt>
      <trkpt lat="42.590001" lon="0.543868">
        <time>1970-01-01T00:00:00+00:00</time>
        <ele>1589.0</ele>
      </trkpt>
      <trkpt lat="42.589882" lon="0.543886">
        <time>1970-01-01T00:00:00+00:00</time>
        <ele>1589.0</ele>
      </trkpt>
      <trkpt lat="42.589822" lon="0.543865">
        <time>1970-01-01T00:00:00+00:00</time>
        <ele>1588.0</ele>
      </trkpt>
      <trkpt lat="42.589679" lon="0.543936">
        <time>1970-01-01T00:00:00+00:00</time>
        <ele>1589.0</ele>
      </trkpt>
      <trkpt lat="42.589359" lon="0.544004">
        <time>1970-01-01T00:00:00+00:00</time>
        <ele>1586.0</ele>
      </trkpt>
      <trkpt lat="42.589257" lon="0.544083">
        <time>1970-01-01T00:00:00+00:00</time>
        <ele>1584.0</ele>
      </trkpt>
      <trkpt lat="42.589136" lon="0.544345">
        <time>1970-01-01T00:00:00+00:00</time>
        <ele>1586.0</ele>
      </trkpt>
      <trkpt lat="42.589045" lon="0.544833">
        <time>1970-01-01T00:00:00+00:00</time>
        <ele>1590.0</ele>
      </trkpt>
      <trkpt lat="42.588913" lon="0.545259">
        <time>1970-01-01T00:00:00+00:00</time>
        <ele>1587.0</ele>
      </trkpt>
      <trkpt lat="42.588926" lon="0.545591">
        <time>1970-01-01T00:00:00+00:00</time>
        <ele>1589.0</ele>
      </trkpt>
      <trkpt lat="42.589019" lon="0.546152">
        <time>1970-01-01T00:00:00+00:00</time>
        <ele>1596.0</ele>
      </trkpt>
      <trkpt lat="42.588999" lon="0.546455">
        <time>1970-01-01T00:00:00+00:00</time>
        <ele>1598.0</ele>
      </trkpt>
      <trkpt lat="42.588915" lon="0.546769">
        <time>1970-01-01T00:00:00+00:00</time>
        <ele>1599.0</ele>
      </trkpt>
      <trkpt lat="42.588843" lon="0.546973">
        <time>1970-01-01T00:00:00+00:00</time>
        <ele>1599.0</ele>
      </trkpt>
      <trkpt lat="42.588879" lon="0.54738">
        <time>1970-01-01T00:00:00+00:00</time>
        <ele>1608.0</ele>
      </trkpt>
      <trkpt lat="42.588963" lon="0.54764">
        <time>1970-01-01T00:00:00+00:00</time>
        <ele>1614.0</ele>
      </trkpt>
      <trkpt lat="42.588958" lon="0.547851">
        <time>1970-01-01T00:00:00+00:00</time>
        <ele>1617.0</ele>
      </trkpt>
      <trkpt lat="42.588792" lon="0.548191">
        <time>1970-01-01T00:00:00+00:00</time>
        <ele>1620.0</ele>
      </trkpt>
      <trkpt lat="42.588521" lon="0.548571">
        <time>1970-01-01T00:00:00+00:00</time>
        <ele>1616.0</ele>
      </trkpt>
      <trkpt lat="42.588262" lon="0.548862">
        <time>1970-01-01T00:00:00+00:00</time>
        <ele>1613.0</ele>
      </trkpt>
      <trkpt lat="42.588037" lon="0.549165">
        <time>1970-01-01T00:00:00+00:00</time>
        <ele>1613.0</ele>
      </trkpt>
      <trkpt lat="42.587885" lon="0.54948">
        <time>1970-01-01T00:00:00+00:00</time>
        <ele>1612.0</ele>
      </trkpt>
      <trkpt lat="42.587858" lon="0.549649">
        <time>1970-01-01T00:00:00+00:00</time>
        <ele>1613.0</ele>
      </trkpt>
      <trkpt lat="42.587817" lon="0.550213">
        <time>1970-01-01T00:00:00+00:00</time>
        <ele>1617.0</ele>
      </trkpt>
      <trkpt lat="42.587825" lon="0.550338">
        <time>1970-01-01T00:00:00+00:00</time>
        <ele>1618.0</ele>
      </trkpt>
      <trkpt lat="42.587752" lon="0.550546">
        <time>1970-01-01T00:00:00+00:00</time>
        <ele>1617.0</ele>
      </trkpt>
      <trkpt lat="42.587625" lon="0.550766">
        <time>1970-01-01T00:00:00+00:00</time>
        <ele>1615.0</ele>
      </trkpt>
      <trkpt lat="42.587583" lon="0.551077">
        <time>1970-01-01T00:00:00+00:00</time>
        <ele>1616.0</ele>
      </trkpt>
      <trkpt lat="42.587749" lon="0.551407">
        <time>1970-01-01T00:00:00+00:00</time>
        <ele>1621.0</ele>
      </trkpt>
      <trkpt lat="42.587816" lon="0.551667">
        <time>1970-01-01T00:00:00+00:00</time>
        <ele>1622.0</ele>
      </trkpt>
      <trkpt lat="42.587847" lon="0.551884">
        <time>1970-01-01T00:00:00+00:00</time>
        <ele>1623.0</ele>
      </trkpt>
      <trkpt lat="42.587842" lon="0.551973">
        <time>1970-01-01T00:00:00+00:00</time>
        <ele>1623.0</ele>
      </trkpt>
      <trkpt lat="42.587797" lon="0.552187">
        <time>1970-01-01T00:00:00+00:00</time>
        <ele>1621.0</ele>
      </trkpt>
      <trkpt lat="42.587801" lon="0.552265">
        <time>1970-01-01T00:00:00+00:00</time>
        <ele>1622.0</ele>
      </trkpt>
      <trkpt lat="42.587901" lon="0.552586">
        <time>1970-01-01T00:00:00+00:00</time>
        <ele>1629.0</ele>
      </trkpt>
      <trkpt lat="42.587864" lon="0.552648">
        <time>1970-01-01T00:00:00+00:00</time>
        <ele>1629.0</ele>
      </trkpt>
      <trkpt lat="42.587711" lon="0.553121">
        <time>1970-01-01T00:00:00+00:00</time>
        <ele>1632.0</ele>
      </trkpt>
      <trkpt lat="42.587421" lon="0.553448">
        <time>1970-01-01T00:00:00+00:00</time>
        <ele>1632.0</ele>
      </trkpt>
      <trkpt lat="42.587317" lon="0.5536">
        <time>1970-01-01T00:00:00+00:00</time>
        <ele>1631.0</ele>
      </trkpt>
      <trkpt lat="42.587284" lon="0.553687">
        <time>1970-01-01T00:00:00+00:00</time>
        <ele>1631.0</ele>
      </trkpt>
      <trkpt lat="42.587258" lon="0.553829">
        <time>1970-01-01T00:00:00+00:00</time>
        <ele>1631.0</ele>
      </trkpt>
      <trkpt lat="42.587225" lon="0.554118">
        <time>1970-01-01T00:00:00+00:00</time>
        <ele>1634.0</ele>
      </trkpt>
      <trkpt lat="42.587176" lon="0.554264">
        <time>1970-01-01T00:00:00+00:00</time>
        <ele>1634.0</ele>
      </trkpt>
      <trkpt lat="42.587175" lon="0.554452">
        <time>1970-01-01T00:00:00+00:00</time>
        <ele>1636.0</ele>
      </trkpt>
      <trkpt lat="42.587151" lon="0.554552">
        <time>1970-01-01T00:00:00+00:00</time>
        <ele>1636.0</ele>
      </trkpt>
      <trkpt lat="42.587077" lon="0.554673">
        <time>1970-01-01T00:00:00+00:00</time>
        <ele>1635.0</ele>
      </trkpt>
      <trkpt lat="42.586992" lon="0.554802">
        <time>1970-01-01T00:00:00+00:00</time>
        <ele>1635.0</ele>
      </trkpt>
      <trkpt lat="42.586928" lon="0.554943">
        <time>1970-01-01T00:00:00+00:00</time>
        <ele>1635.0</ele>
      </trkpt>
      <trkpt lat="42.58685" lon="0.555261">
        <time>1970-01-01T00:00:00+00:00</time>
        <ele>1637.0</ele>
      </trkpt>
      <trkpt lat="42.586796" lon="0.555351">
        <time>1970-01-01T00:00:00+00:00</time>
        <ele>1636.0</ele>
      </trkpt>
      <trkpt lat="42.586649" lon="0.555517">
        <time>1970-01-01T00:00:00+00:00</time>
        <ele>1635.0</ele>
      </trkpt>
      <trkpt lat="42.586627" lon="0.555598">
        <time>1970-01-01T00:00:00+00:00</time>
        <ele>1636.0</ele>
      </trkpt>
      <trkpt lat="42.586565" lon="0.556152">
        <time>1970-01-01T00:00:00+00:00</time>
        <ele>1641.0</ele>
      </trkpt>
      <trkpt lat="42.586519" lon="0.55625">
        <time>1970-01-01T00:00:00+00:00</time>
        <ele>1642.0</ele>
      </trkpt>
      <trkpt lat="42.586508" lon="0.556313">
        <time>1970-01-01T00:00:00+00:00</time>
        <ele>1643.0</ele>
      </trkpt>
      <trkpt lat="42.58661" lon="0.556569">
        <time>1970-01-01T00:00:00+00:00</time>
        <ele>1646.0</ele>
      </trkpt>
      <trkpt lat="42.586789" lon="0.556921">
        <time>1970-01-01T00:00:00+00:00</time>
        <ele>1651.0</ele>
      </trkpt>
      <trkpt lat="42.586901" lon="0.5571">
        <time>1970-01-01T00:00:00+00:00</time>
        <ele>1653.0</ele>
      </trkpt>
      <trkpt lat="42.586979" lon="0.557632">
        <time>1970-01-01T00:00:00+00:00</time>
        <ele>1659.0</ele>
      </trkpt>
      <trkpt lat="42.58707" lon="0.557903">
        <time>1970-01-01T00:00:00+00:00</time>
        <ele>1662.0</ele>
      </trkpt>
      <trkpt lat="42.587084" lon="0.558043">
        <time>1970-01-01T00:00:00+00:00</time>
        <ele>1663.0</ele>
      </trkpt>
      <trkpt lat="42.587078" lon="0.558173">
        <time>1970-01-01T00:00:00+00:00</time>
        <ele>1663.0</ele>
      </trkpt>
      <trkpt lat="42.586943" lon="0.558616">
        <time>1970-01-01T00:00:00+00:00</time>
        <ele>1666.0</ele>
      </trkpt>
      <trkpt lat="42.586929" lon="0.558856">
        <time>1970-01-01T00:00:00+00:00</time>
        <ele>1669.0</ele>
      </trkpt>
      <trkpt lat="42.586879" lon="0.558952">
        <time>1970-01-01T00:00:00+00:00</time>
        <ele>1671.0</ele>
      </trkpt>
      <trkpt lat="42.586868" lon="0.55901">
        <time>1970-01-01T00:00:00+00:00</time>
        <ele>1672.0</ele>
      </trkpt>
      <trkpt lat="42.586977" lon="0.559466">
        <time>1970-01-01T00:00:00+00:00</time>
        <ele>1677.0</ele>
      </trkpt>
      <trkpt lat="42.587003" lon="0.559543">
        <time>1970-01-01T00:00:00+00:00</time>
        <ele>1679.0</ele>
      </trkpt>
      <trkpt lat="42.58719" lon="0.559813">
        <time>1970-01-01T00:00:00+00:00</time>
        <ele>1681.0</ele>
      </trkpt>
      <trkpt lat="42.587251" lon="0.559935">
        <time>1970-01-01T00:00:00+00:00</time>
        <ele>1682.0</ele>
      </trkpt>
      <trkpt lat="42.58734" lon="0.560246">
        <time>1970-01-01T00:00:00+00:00</time>
        <ele>1686.0</ele>
      </trkpt>
      <trkpt lat="42.587419" lon="0.560423">
        <time>1970-01-01T00:00:00+00:00</time>
        <ele>1688.0</ele>
      </trkpt>
      <trkpt lat="42.587467" lon="0.560683">
        <time>1970-01-01T00:00:00+00:00</time>
        <ele>1691.0</ele>
      </trkpt>
      <trkpt lat="42.58747" lon="0.560891">
        <time>1970-01-01T00:00:00+00:00</time>
        <ele>1693.0</ele>
      </trkpt>
      <trkpt lat="42.587561" lon="0.561131">
        <time>1970-01-01T00:00:00+00:00</time>
        <ele>1692.0</ele>
      </trkpt>
      <trkpt lat="42.587652" lon="0.561482">
        <time>1970-01-01T00:00:00+00:00</time>
        <ele>1698.0</ele>
      </trkpt>
      <trkpt lat="42.587714" lon="0.561612">
        <time>1970-01-01T00:00:00+00:00</time>
        <ele>1699.0</ele>
      </trkpt>
      <trkpt lat="42.587751" lon="0.561799">
        <time>1970-01-01T00:00:00+00:00</time>
        <ele>1704.0</ele>
      </trkpt>
      <trkpt lat="42.587905" lon="0.562243">
        <time>1970-01-01T00:00:00+00:00</time>
        <ele>1707.0</ele>
      </trkpt>
      <trkpt lat="42.588243" lon="0.562682">
        <time>1970-01-01T00:00:00+00:00</time>
        <ele>1702.0</ele>
      </trkpt>
      <trkpt lat="42.588425" lon="0.562948">
        <time>1970-01-01T00:00:00+00:00</time>
        <ele>1704.0</ele>
      </trkpt>
      <trkpt lat="42.58842" lon="0.563326">
        <time>1970-01-01T00:00:00+00:00</time>
        <ele>1711.0</ele>
      </trkpt>
      <trkpt lat="42.588383" lon="0.56359">
        <time>1970-01-01T00:00:00+00:00</time>
        <ele>1717.0</ele>
      </trkpt>
      <trkpt lat="42.588381" lon="0.5637">
        <time>1970-01-01T00:00:00+00:00</time>
        <ele>1720.0</ele>
      </trkpt>
      <trkpt lat="42.588413" lon="0.563824">
        <time>1970-01-01T00:00:00+00:00</time>
        <ele>1721.0</ele>
      </trkpt>
      <trkpt lat="42.588588" lon="0.564434">
        <time>1970-01-01T00:00:00+00:00</time>
        <ele>1727.0</ele>
      </trkpt>
      <trkpt lat="42.588661" lon="0.564583">
        <time>1970-01-01T00:00:00+00:00</time>
        <ele>1726.0</ele>
      </trkpt>
      <trkpt lat="42.588699" lon="0.564763">
        <time>1970-01-01T00:00:00+00:00</time>
        <ele>1728.0</ele>
      </trkpt>
      <trkpt lat="42.588713" lon="0.564883">
        <time>1970-01-01T00:00:00+00:00</time>
        <ele>1730.0</ele>
      </trkpt>
      <trkpt lat="42.588695" lon="0.565225">
        <time>1970-01-01T00:00:00+00:00</time>
        <ele>1737.0</ele>
      </trkpt>
      <trkpt lat="42.588673" lon="0.565476">
        <time>1970-01-01T00:00:00+00:00</time>
        <ele>1742.0</ele>
      </trkpt>
      <trkpt lat="42.588644" lon="0.565541">
        <time>1970-01-01T00:00:00+00:00</time>
        <ele>1746.0</ele>
      </trkpt>
      <trkpt lat="42.588683" lon="0.565842">
        <time>1970-01-01T00:00:00+00:00</time>
        <ele>1751.0</ele>
      </trkpt>
      <trkpt lat="42.588732" lon="0.56601">
        <time>1970-01-01T00:00:00+00:00</time>
        <ele>1752.0</ele>
      </trkpt>
      <trkpt lat="42.588804" lon="0.56613">
        <time>1970-01-01T00:00:00+00:00</time>
        <ele>1752.0</ele>
      </trkpt>
      <trkpt lat="42.589012" lon="0.566377">
        <time>1970-01-01T00:00:00+00:00</time>
        <ele>1753.0</ele>
      </trkpt>
      <trkpt lat="42.589121" lon="0.566557">
        <time>1970-01-01T00:00:00+00:00</time>
        <ele>1754.0</ele>
      </trkpt>
      <trkpt lat="42.589177" lon="0.566682">
        <time>1970-01-01T00:00:00+00:00</time>
        <ele>1754.0</ele>
      </trkpt>
      <trkpt lat="42.589192" lon="0.566996">
        <time>1970-01-01T00:00:00+00:00</time>
        <ele>1757.0</ele>
      </trkpt>
      <trkpt lat="42.589133" lon="0.567179">
        <time>1970-01-01T00:00:00+00:00</time>
        <ele>1760.0</ele>
      </trkpt>
      <trkpt lat="42.588951" lon="0.567567">
        <time>1970-01-01T00:00:00+00:00</time>
        <ele>1772.0</ele>
      </trkpt>
      <trkpt lat="42.588873" lon="0.567892">
        <time>1970-01-01T00:00:00+00:00</time>
        <ele>1776.0</ele>
      </trkpt>
      <trkpt lat="42.588833" lon="0.568001">
        <time>1970-01-01T00:00:00+00:00</time>
        <ele>1779.0</ele>
      </trkpt>
      <trkpt lat="42.588807" lon="0.568214">
        <time>1970-01-01T00:00:00+00:00</time>
        <ele>1783.0</ele>
      </trkpt>
      <trkpt lat="42.588819" lon="0.568492">
        <time>1970-01-01T00:00:00+00:00</time>
        <ele>1784.0</ele>
      </trkpt>
      <trkpt lat="42.588883" lon="0.56924">
        <time>1970-01-01T00:00:00+00:00</time>
        <ele>1790.0</ele>
      </trkpt>
      <trkpt lat="42.588844" lon="0.569508">
        <time>1970-01-01T00:00:00+00:00</time>
        <ele>1801.0</ele>
      </trkpt>
      <trkpt lat="42.588787" lon="0.56969">
        <time>1970-01-01T00:00:00+00:00</time>
        <ele>1811.0</ele>
      </trkpt>
      <trkpt lat="42.588763" lon="0.569908">
        <time>1970-01-01T00:00:00+00:00</time>
        <ele>1819.0</ele>
      </trkpt>
      <trkpt lat="42.588664" lon="0.57022">
        <time>1970-01-01T00:00:00+00:00</time>
        <ele>1842.0</ele>
      </trkpt>
      <trkpt lat="42.588641" lon="0.570424">
        <time>1970-01-01T00:00:00+00:00</time>
        <ele>1855.0</ele>
      </trkpt>
      <trkpt lat="42.588669" lon="0.570448">
        <time>1970-01-01T00:00:00+00:00</time>
        <ele>1856.0</ele>
      </trkpt>
      <trkpt lat="42.588669" lon="0.570448">
        <time>1970-01-01T00:00:00+00:00</time>
        <ele>1856.0</ele>
      </trkpt>
      <trkpt lat="42.588641" lon="0.570424">
        <time>1970-01-01T00:00:00+00:00</time>
        <ele>1855.0</ele>
      </trkpt>
      <trkpt lat="42.588664" lon="0.57022">
        <time>1970-01-01T00:00:00+00:00</time>
        <ele>1842.0</ele>
      </trkpt>
      <trkpt lat="42.588763" lon="0.569908">
        <time>1970-01-01T00:00:00+00:00</time>
        <ele>1819.0</ele>
      </trkpt>
      <trkpt lat="42.588787" lon="0.56969">
        <time>1970-01-01T00:00:00+00:00</time>
        <ele>1811.0</ele>
      </trkpt>
      <trkpt lat="42.588844" lon="0.569508">
        <time>1970-01-01T00:00:00+00:00</time>
        <ele>1801.0</ele>
      </trkpt>
      <trkpt lat="42.588883" lon="0.56924">
        <time>1970-01-01T00:00:00+00:00</time>
        <ele>1790.0</ele>
      </trkpt>
      <trkpt lat="42.588819" lon="0.568492">
        <time>1970-01-01T00:00:00+00:00</time>
        <ele>1784.0</ele>
      </trkpt>
      <trkpt lat="42.588807" lon="0.568214">
        <time>1970-01-01T00:00:00+00:00</time>
        <ele>1783.0</ele>
      </trkpt>
      <trkpt lat="42.588833" lon="0.568001">
        <time>1970-01-01T00:00:00+00:00</time>
        <ele>1779.0</ele>
      </trkpt>
      <trkpt lat="42.588873" lon="0.567892">
        <time>1970-01-01T00:00:00+00:00</time>
        <ele>1776.0</ele>
      </trkpt>
      <trkpt lat="42.588951" lon="0.567567">
        <time>1970-01-01T00:00:00+00:00</time>
        <ele>1772.0</ele>
      </trkpt>
      <trkpt lat="42.589133" lon="0.567179">
        <time>1970-01-01T00:00:00+00:00</time>
        <ele>1760.0</ele>
      </trkpt>
      <trkpt lat="42.589192" lon="0.566996">
        <time>1970-01-01T00:00:00+00:00</time>
        <ele>1757.0</ele>
      </trkpt>
      <trkpt lat="42.589177" lon="0.566682">
        <time>1970-01-01T00:00:00+00:00</time>
        <ele>1754.0</ele>
      </trkpt>
      <trkpt lat="42.589121" lon="0.566557">
        <time>1970-01-01T00:00:00+00:00</time>
        <ele>1754.0</ele>
      </trkpt>
      <trkpt lat="42.589012" lon="0.566377">
        <time>1970-01-01T00:00:00+00:00</time>
        <ele>1753.0</ele>
      </trkpt>
      <trkpt lat="42.588804" lon="0.56613">
        <time>1970-01-01T00:00:00+00:00</time>
        <ele>1752.0</ele>
      </trkpt>
      <trkpt lat="42.588732" lon="0.56601">
        <time>1970-01-01T00:00:00+00:00</time>
        <ele>1752.0</ele>
      </trkpt>
      <trkpt lat="42.588683" lon="0.565842">
        <time>1970-01-01T00:00:00+00:00</time>
        <ele>1751.0</ele>
      </trkpt>
      <trkpt lat="42.588644" lon="0.565541">
        <time>1970-01-01T00:00:00+00:00</time>
        <ele>1746.0</ele>
      </trkpt>
      <trkpt lat="42.588673" lon="0.565476">
        <time>1970-01-01T00:00:00+00:00</time>
        <ele>1742.0</ele>
      </trkpt>
      <trkpt lat="42.588695" lon="0.565225">
        <time>1970-01-01T00:00:00+00:00</time>
        <ele>1737.0</ele>
      </trkpt>
      <trkpt lat="42.588713" lon="0.564883">
        <time>1970-01-01T00:00:00+00:00</time>
        <ele>1730.0</ele>
      </trkpt>
      <trkpt lat="42.588699" lon="0.564763">
        <time>1970-01-01T00:00:00+00:00</time>
        <ele>1728.0</ele>
      </trkpt>
      <trkpt lat="42.588661" lon="0.564583">
        <time>1970-01-01T00:00:00+00:00</time>
        <ele>1726.0</ele>
      </trkpt>
      <trkpt lat="42.588588" lon="0.564434">
        <time>1970-01-01T00:00:00+00:00</time>
        <ele>1727.0</ele>
      </trkpt>
      <trkpt lat="42.588413" lon="0.563824">
        <time>1970-01-01T00:00:00+00:00</time>
        <ele>1721.0</ele>
      </trkpt>
      <trkpt lat="42.588421" lon="0.563786">
        <time>1970-01-01T00:00:00+00:00</time>
        <ele>1719.0</ele>
      </trkpt>
      <trkpt lat="42.588481" lon="0.563714">
        <time>1970-01-01T00:00:00+00:00</time>
        <ele>1716.0</ele>
      </trkpt>
      <trkpt lat="42.588557" lon="0.563675">
        <time>1970-01-01T00:00:00+00:00</time>
        <ele>1713.0</ele>
      </trkpt>
      <trkpt lat="42.588761" lon="0.563734">
        <time>1970-01-01T00:00:00+00:00</time>
        <ele>1710.0</ele>
      </trkpt>
      <trkpt lat="42.588856" lon="0.563713">
        <time>1970-01-01T00:00:00+00:00</time>
        <ele>1711.0</ele>
      </trkpt>
      <trkpt lat="42.588917" lon="0.563569">
        <time>1970-01-01T00:00:00+00:00</time>
        <ele>1712.0</ele>
      </trkpt>
      <trkpt lat="42.588953" lon="0.563557">
        <time>1970-01-01T00:00:00+00:00</time>
        <ele>1713.0</ele>
      </trkpt>
      <trkpt lat="42.588998" lon="0.563574">
        <time>1970-01-01T00:00:00+00:00</time>
        <ele>1716.0</ele>
      </trkpt>
      <trkpt lat="42.589017" lon="0.563277">
        <time>1970-01-01T00:00:00+00:00</time>
        <ele>1717.0</ele>
      </trkpt>
      <trkpt lat="42.589079" lon="0.563002">
        <time>1970-01-01T00:00:00+00:00</time>
        <ele>1720.0</ele>
      </trkpt>
      <trkpt lat="42.589104" lon="0.562727">
        <time>1970-01-01T00:00:00+00:00</time>
        <ele>1722.0</ele>
      </trkpt>
      <trkpt lat="42.589095" lon="0.56236">
        <time>1970-01-01T00:00:00+00:00</time>
        <ele>1724.0</ele>
      </trkpt>
      <trkpt lat="42.589034" lon="0.56195">
        <time>1970-01-01T00:00:00+00:00</time>
        <ele>1726.0</ele>
      </trkpt>
      <trkpt lat="42.589014" lon="0.561545">
        <time>1970-01-01T00:00:00+00:00</time>
        <ele>1733.0</ele>
      </trkpt>
      <trkpt lat="42.588861" lon="0.560805">
        <time>1970-01-01T00:00:00+00:00</time>
        <ele>1736.0</ele>
      </trkpt>
      <trkpt lat="42.588876" lon="0.560544">
        <time>1970-01-01T00:00:00+00:00</time>
        <ele>1738.0</ele>
      </trkpt>
      <trkpt lat="42.588848" lon="0.560341">
        <time>1970-01-01T00:00:00+00:00</time>
        <ele>1739.0</ele>
      </trkpt>
      <trkpt lat="42.588835" lon="0.559963">
        <time>1970-01-01T00:00:00+00:00</time>
        <ele>1742.0</ele>
      </trkpt>
      <trkpt lat="42.588757" lon="0.559381">
        <time>1970-01-01T00:00:00+00:00</time>
        <ele>1742.0</ele>
      </trkpt>
      <trkpt lat="42.58875" lon="0.559012">
        <time>1970-01-01T00:00:00+00:00</time>
        <ele>1744.0</ele>
      </trkpt>
      <trkpt lat="42.588677" lon="0.558697">
        <time>1970-01-01T00:00:00+00:00</time>
        <ele>1741.0</ele>
      </trkpt>
      <trkpt lat="42.588644" lon="0.558352">
        <time>1970-01-01T00:00:00+00:00</time>
        <ele>1739.0</ele>
      </trkpt>
      <trkpt lat="42.588739" lon="0.557738">
        <time>1970-01-01T00:00:00+00:00</time>
        <ele>1743.0</ele>
      </trkpt>
      <trkpt lat="42.588804" lon="0.557456">
        <time>1970-01-01T00:00:00+00:00</time>
        <ele>1744.0</ele>
      </trkpt>
      <trkpt lat="42.588869" lon="0.557226">
        <time>1970-01-01T00:00:00+00:00</time>
        <ele>1745.0</ele>
      </trkpt>
      <trkpt lat="42.589117" lon="0.556517">
        <time>1970-01-01T00:00:00+00:00</time>
        <ele>1746.0</ele>
      </trkpt>
      <trkpt lat="42.58983" lon="0.555278">
        <time>1970-01-01T00:00:00+00:00</time>
        <ele>1745.0</ele>
      </trkpt>
      <trkpt lat="42.589902" lon="0.555124">
        <time>1970-01-01T00:00:00+00:00</time>
        <ele>1745.0</ele>
      </trkpt>
      <trkpt lat="42.589924" lon="0.55504">
        <time>1970-01-01T00:00:00+00:00</time>
        <ele>1744.0</ele>
      </trkpt>
      <trkpt lat="42.590006" lon="0.554784">
        <time>1970-01-01T00:00:00+00:00</time>
        <ele>1741.0</ele>
      </trkpt>
      <trkpt lat="42.590325" lon="0.554014">
        <time>1970-01-01T00:00:00+00:00</time>
        <ele>1734.0</ele>
      </trkpt>
      <trkpt lat="42.590485" lon="0.553526">
        <time>1970-01-01T00:00:00+00:00</time>
        <ele>1729.0</ele>
      </trkpt>
      <trkpt lat="42.590708" lon="0.553179">
        <time>1970-01-01T00:00:00+00:00</time>
        <ele>1729.0</ele>
      </trkpt>
      <trkpt lat="42.590868" lon="0.552765">
        <time>1970-01-01T00:00:00+00:00</time>
        <ele>1728.0</ele>
      </trkpt>
      <trkpt lat="42.590951" lon="0.552606">
        <time>1970-01-01T00:00:00+00:00</time>
        <ele>1728.0</ele>
      </trkpt>
      <trkpt lat="42.591218" lon="0.552253">
        <time>1970-01-01T00:00:00+00:00</time>
        <ele>1723.0</ele>
      </trkpt>
      <trkpt lat="42.591378" lon="0.551951">
        <time>1970-01-01T00:00:00+00:00</time>
        <ele>1721.0</ele>
      </trkpt>
      <trkpt lat="42.591496" lon="0.551677">
        <time>1970-01-01T00:00:00+00:00</time>
        <ele>1719.0</ele>
      </trkpt>
      <trkpt lat="42.591671" lon="0.551342">
        <time>1970-01-01T00:00:00+00:00</time>
        <ele>1717.0</ele>
      </trkpt>
      <trkpt lat="42.591872" lon="0.550728">
        <time>1970-01-01T00:00:00+00:00</time>
        <ele>1712.0</ele>
      </trkpt>
      <trkpt lat="42.591983" lon="0.55056">
        <time>1970-01-01T00:00:00+00:00</time>
        <ele>1708.0</ele>
      </trkpt>
      <trkpt lat="42.592043" lon="0.550431">
        <time>1970-01-01T00:00:00+00:00</time>
        <ele>1706.0</ele>
      </trkpt>
      <trkpt lat="42.59214" lon="0.550073">
        <time>1970-01-01T00:00:00+00:00</time>
        <ele>1701.0</ele>
      </trkpt>
      <trkpt lat="42.592124" lon="0.550007">
        <time>1970-01-01T00:00:00+00:00</time>
        <ele>1701.0</ele>
      </trkpt>
      <trkpt lat="42.592083" lon="0.549944">
        <time>1970-01-01T00:00:00+00:00</time>
        <ele>1700.0</ele>
      </trkpt>
      <trkpt lat="42.591964" lon="0.54986">
        <time>1970-01-01T00:00:00+00:00</time>
        <ele>1700.0</ele>
      </trkpt>
      <trkpt lat="42.591928" lon="0.549813">
        <time>1970-01-01T00:00:00+00:00</time>
        <ele>1700.0</ele>
      </trkpt>
      <trkpt lat="42.591913" lon="0.549753">
        <time>1970-01-01T00:00:00+00:00</time>
        <ele>1699.0</ele>
      </trkpt>
      <trkpt lat="42.591923" lon="0.549671">
        <time>1970-01-01T00:00:00+00:00</time>
        <ele>1698.0</ele>
      </trkpt>
      <trkpt lat="42.592057" lon="0.549482">
        <time>1970-01-01T00:00:00+00:00</time>
        <ele>1695.0</ele>
      </trkpt>
      <trkpt lat="42.592098" lon="0.549379">
        <time>1970-01-01T00:00:00+00:00</time>
        <ele>1693.0</ele>
      </trkpt>
      <trkpt lat="42.592115" lon="0.549164">
        <time>1970-01-01T00:00:00+00:00</time>
        <ele>1690.0</ele>
      </trkpt>
      <trkpt lat="42.592148" lon="0.54905">
        <time>1970-01-01T00:00:00+00:00</time>
        <ele>1689.0</ele>
      </trkpt>
      <trkpt lat="42.592296" lon="0.548772">
        <time>1970-01-01T00:00:00+00:00</time>
        <ele>1686.0</ele>
      </trkpt>
      <trkpt lat="42.59236" lon="0.548702">
        <time>1970-01-01T00:00:00+00:00</time>
        <ele>1685.0</ele>
      </trkpt>
      <trkpt lat="42.592445" lon="0.548662">
        <time>1970-01-01T00:00:00+00:00</time>
        <ele>1685.0</ele>
      </trkpt>
      <trkpt lat="42.592525" lon="0.54866">
        <time>1970-01-01T00:00:00+00:00</time>
        <ele>1685.0</ele>
      </trkpt>
      <trkpt lat="42.592755" lon="0.548723">
        <time>1970-01-01T00:00:00+00:00</time>
        <ele>1683.0</ele>
      </trkpt>
      <trkpt lat="42.592863" lon="0.548798">
        <time>1970-01-01T00:00:00+00:00</time>
        <ele>1681.0</ele>
      </trkpt>
      <trkpt lat="42.592906" lon="0.548781">
        <time>1970-01-01T00:00:00+00:00</time>
        <ele>1680.0</ele>
      </trkpt>
      <trkpt lat="42.592977" lon="0.548487">
        <time>1970-01-01T00:00:00+00:00</time>
        <ele>1677.0</ele>
      </trkpt>
      <trkpt lat="42.593267" lon="0.548032">
        <time>1970-01-01T00:00:00+00:00</time>
        <ele>1673.0</ele>
      </trkpt>
      <trkpt lat="42.593381" lon="0.547759">
        <time>1970-01-01T00:00:00+00:00</time>
        <ele>1668.0</ele>
      </trkpt>
      <trkpt lat="42.59346" lon="0.54763">
        <time>1970-01-01T00:00:00+00:00</time>
        <ele>1665.0</ele>
      </trkpt>
      <trkpt lat="42.593532" lon="0.54745">
        <time>1970-01-01T00:00:00+00:00</time>
        <ele>1662.0</ele>
      </trkpt>
      <trkpt lat="42.593601" lon="0.54721">
        <time>1970-01-01T00:00:00+00:00</time>
        <ele>1657.0</ele>
      </trkpt>
      <trkpt lat="42.593642" lon="0.547145">
        <time>1970-01-01T00:00:00+00:00</time>
        <ele>1656.0</ele>
      </trkpt>
      <trkpt lat="42.593793" lon="0.547098">
        <time>1970-01-01T00:00:00+00:00</time>
        <ele>1656.0</ele>
      </trkpt>
      <trkpt lat="42.593967" lon="0.547149">
        <time>1970-01-01T00:00:00+00:00</time>
        <ele>1659.0</ele>
      </trkpt>
      <trkpt lat="42.594109" lon="0.547123">
        <time>1970-01-01T00:00:00+00:00</time>
        <ele>1658.0</ele>
      </trkpt>
      <trkpt lat="42.59414" lon="0.547081">
        <time>1970-01-01T00:00:00+00:00</time>
        <ele>1657.0</ele>
      </trkpt>
      <trkpt lat="42.594146" lon="0.547023">
        <time>1970-01-01T00:00:00+00:00</time>
        <ele>1656.0</ele>
      </trkpt>
      <trkpt lat="42.594092" lon="0.546925">
        <time>1970-01-01T00:00:00+00:00</time>
        <ele>1653.0</ele>
      </trkpt>
      <trkpt lat="42.594025" lon="0.546633">
        <time>1970-01-01T00:00:00+00:00</time>
        <ele>1649.0</ele>
      </trkpt>
      <trkpt lat="42.594041" lon="0.546168">
        <time>1970-01-01T00:00:00+00:00</time>
        <ele>1641.0</ele>
      </trkpt>
      <trkpt lat="42.594106" lon="0.54586">
        <time>1970-01-01T00:00:00+00:00</time>
        <ele>1638.0</ele>
      </trkpt>
      <trkpt lat="42.594158" lon="0.545494">
        <time>1970-01-01T00:00:00+00:00</time>
        <ele>1632.0</ele>
      </trkpt>
      <trkpt lat="42.59423" lon="0.54534">
        <time>1970-01-01T00:00:00+00:00</time>
        <ele>1630.0</ele>
      </trkpt>
      <trkpt lat="42.594323" lon="0.545199">
        <time>1970-01-01T00:00:00+00:00</time>
        <ele>1629.0</ele>
      </trkpt>
      <trkpt lat="42.594553" lon="0.544936">
        <time>1970-01-01T00:00:00+00:00</time>
        <ele>1630.0</ele>
      </trkpt>
      <trkpt lat="42.594893" lon="0.544373">
        <time>1970-01-01T00:00:00+00:00</time>
        <ele>1623.0</ele>
      </trkpt>
      <trkpt lat="42.59511" lon="0.544053">
        <time>1970-01-01T00:00:00+00:00</time>
        <ele>1622.0</ele>
      </trkpt>
      <trkpt lat="42.59518" lon="0.543883">
        <time>1970-01-01T00:00:00+00:00</time>
        <ele>1620.0</ele>
      </trkpt>
      <trkpt lat="42.595222" lon="0.543689">
        <time>1970-01-01T00:00:00+00:00</time>
        <ele>1617.0</ele>
      </trkpt>
      <trkpt lat="42.595241" lon="0.543434">
        <time>1970-01-01T00:00:00+00:00</time>
        <ele>1614.0</ele>
      </trkpt>
      <trkpt lat="42.595234" lon="0.543238">
        <time>1970-01-01T00:00:00+00:00</time>
        <ele>1610.0</ele>
      </trkpt>
      <trkpt lat="42.595199" lon="0.543019">
        <time>1970-01-01T00:00:00+00:00</time>
        <ele>1605.0</ele>
      </trkpt>
      <trkpt lat="42.595186" lon="0.542792">
        <time>1970-01-01T00:00:00+00:00</time>
        <ele>1600.0</ele>
      </trkpt>
      <trkpt lat="42.595196" lon="0.542465">
        <time>1970-01-01T00:00:00+00:00</time>
        <ele>1594.0</ele>
      </trkpt>
      <trkpt lat="42.595068" lon="0.542774">
        <time>1970-01-01T00:00:00+00:00</time>
        <ele>1594.0</ele>
      </trkpt>
      <trkpt lat="42.594608" lon="0.543514">
        <time>1970-01-01T00:00:00+00:00</time>
        <ele>1594.0</ele>
      </trkpt>
      <trkpt lat="42.594235" lon="0.543904">
        <time>1970-01-01T00:00:00+00:00</time>
        <ele>1596.0</ele>
      </trkpt>
      <trkpt lat="42.593849" lon="0.5442">
        <time>1970-01-01T00:00:00+00:00</time>
        <ele>1598.0</ele>
      </trkpt>
      <trkpt lat="42.59364" lon="0.544329">
        <time>1970-01-01T00:00:00+00:00</time>
        <ele>1595.0</ele>
      </trkpt>
      <trkpt lat="42.593468" lon="0.544257">
        <time>1970-01-01T00:00:00+00:00</time>
        <ele>1592.0</ele>
      </trkpt>
      <trkpt lat="42.593609" lon="0.543844">
        <time>1970-01-01T00:00:00+00:00</time>
        <ele>1588.0</ele>
      </trkpt>
      <trkpt lat="42.593933" lon="0.543063">
        <time>1970-01-01T00:00:00+00:00</time>
        <ele>1582.0</ele>
      </trkpt>
      <trkpt lat="42.594175" lon="0.542418">
        <time>1970-01-01T00:00:00+00:00</time>
        <ele>1575.0</ele>
      </trkpt>
      <trkpt lat="42.5943" lon="0.542003">
        <time>1970-01-01T00:00:00+00:00</time>
        <ele>1574.0</ele>
      </trkpt>
      <trkpt lat="42.594308" lon="0.541661">
        <time>1970-01-01T00:00:00+00:00</time>
        <ele>1572.0</ele>
      </trkpt>
      <trkpt lat="42.594203" lon="0.5413">
        <time>1970-01-01T00:00:00+00:00</time>
        <ele>1569.0</ele>
      </trkpt>
      <trkpt lat="42.594104" lon="0.541134">
        <time>1970-01-01T00:00:00+00:00</time>
        <ele>1568.0</ele>
      </trkpt>
      <trkpt lat="42.593984" lon="0.541015">
        <time>1970-01-01T00:00:00+00:00</time>
        <ele>1567.0</ele>
      </trkpt>
      <trkpt lat="42.593747" lon="0.540843">
        <time>1970-01-01T00:00:00+00:00</time>
        <ele>1565.0</ele>
      </trkpt>
      <trkpt lat="42.593502" lon="0.540773">
        <time>1970-01-01T00:00:00+00:00</time>
        <ele>1563.0</ele>
      </trkpt>
      <trkpt lat="42.593315" lon="0.540796">
        <time>1970-01-01T00:00:00+00:00</time>
        <ele>1563.0</ele>
      </trkpt>
      <trkpt lat="42.592839" lon="0.540944">
        <time>1970-01-01T00:00:00+00:00</time>
        <ele>1561.0</ele>
      </trkpt>
      <trkpt lat="42.592846" lon="0.541209">
        <time>1970-01-01T00:00:00+00:00</time>
        <ele>1562.0</ele>
      </trkpt>
      <trkpt lat="42.592765" lon="0.541459">
        <time>1970-01-01T00:00:00+00:00</time>
        <ele>1562.0</ele>
      </trkpt>
    </trkseg>
  </trk>
</gpx>
